Time,TemperatureF,DewpointF,PressureIn,WindDirection,WindDirectionDegrees,WindSpeedMPH,WindSpeedGustMPH,Humidity,HourlyPrecipIn,Conditions,Clouds,dailyrainin,SoftwareType,DateUTC
2013-01-15 00:00:00,24.1,13.3,30.34,ENE,78,0.0,0.0,63,0.00,,,0.00,VWS V14.01,2013-01-15 08:00:00,
2013-01-15 00:01:00,24.1,13.3,30.34,ENE,78,0.0,0.0,63,0.00,,,0.00,VWS V14.01,2013-01-15 08:01:00,
2013-01-15 00:02:00,24.6,13.8,30.37,ENE,78,2.2,2.2,63,0.00,,,0.00,VWS V14.01,2013-01-15 08:02:00,
2013-01-15 00:03:00,24.1,13.3,30.34,ENE,78,0.0,0.0,63,0.00,,,0.00,VWS V14.01,2013-01-15 08:03:00,
2013-01-15 00:04:00,24.1,13.3,30.34,ENE,78,0.0,0.0,63,0.00,,,0.00,VWS V14.01,2013-01-15 08:04:00,
2013-01-15 00:05:00,24.3,13.5,30.34,ENE,78,0.0,0.0,63,0.00,,,0.00,VWS V14.01,2013-01-15 08:05:00,
2013-01-15 00:06:00,24.3,13.5,30.34,ENE,78,0.0,0.0,63,0.00,,,0.00,VWS V14.01,2013-01-15 08:06:00,
2013-01-15 00:07:00,24.6,13.8,30.34,ENE,78,0.0,0.0,63,0.00,,,0.00,VWS V14.01,2013-01-15 08:07:00,
2013-01-15 00:08:00,24.3,13.5,30.34,ENE,78,0.0,0.0,63,0.00,,,0.00,VWS V14.01,2013-01-15 08:08:00,
2013-01-15 00:09:00,24.3,13.5,30.34,ENE,78,0.0,0.0,63,0.00,,,0.00,VWS V14.01,2013-01-15 08:09:00,
2013-01-15 00:10:00,24.3,13.5,30.34,ENE,78,0.0,0.0,63,0.00,,,0.00,VWS V14.01,2013-01-15 08:10:00,
2013-01-15 00:11:00,24.3,13.5,30.34,ENE,78,0.0,0.0,63,0.00,,,0.00,VWS V14.01,2013-01-15 08:11:00,
2013-01-15 00:12:00,24.6,13.8,30.34,ENE,78,0.0,0.0,63,0.00,,,0.00,VWS V14.01,2013-01-15 08:12:00,
2013-01-15 00:13:00,24.3,13.5,30.37,ENE,78,0.0,0.0,63,0.00,,,0.00,VWS V14.01,2013-01-15 08:13:00,
2013-01-15 00:14:00,24.3,13.5,30.37,ENE,78,0.0,0.0,63,0.00,,,0.00,VWS V14.01,2013-01-15 08:14:00,
2013-01-15 00:15:00,24.3,13.5,30.37,ENE,78,0.0,0.0,63,0.00,,,0.00,VWS V14.01,2013-01-15 08:15:00,
2013-01-15 00:16:00,24.3,13.5,30.37,ENE,78,0.0,0.0,63,0.00,,,0.00,VWS V14.01,2013-01-15 08:16:00,
2013-01-15 00:17:00,24.6,13.8,30.34,ENE,78,0.0,0.0,63,0.00,,,0.00,VWS V14.01,2013-01-15 08:17:00,
2013-01-15 00:18:00,24.3,13.5,30.37,ENE,78,0.0,0.0,63,0.00,,,0.00,VWS V14.01,2013-01-15 08:18:00,
2013-01-15 00:19:00,24.3,13.5,30.37,ENE,78,0.0,0.0,63,0.00,,,0.00,VWS V14.01,2013-01-15 08:19:00,
2013-01-15 00:20:00,24.3,13.5,30.37,ENE,78,0.0,0.0,63,0.00,,,0.00,VWS V14.01,2013-01-15 08:20:00,
2013-01-15 00:21:00,24.3,13.5,30.37,ENE,78,0.0,0.0,63,0.00,,,0.00,VWS V14.01,2013-01-15 08:21:00,
2013-01-15 00:22:00,24.6,13.8,30.34,ENE,78,0.0,0.0,63,0.00,,,0.00,VWS V14.01,2013-01-15 08:22:00,
2013-01-15 00:23:00,24.3,13.5,30.37,ENE,78,0.0,0.0,63,0.00,,,0.00,VWS V14.01,2013-01-15 08:23:00,
2013-01-15 00:24:00,24.3,13.5,30.37,ENE,78,0.0,0.0,63,0.00,,,0.00,VWS V14.01,2013-01-15 08:24:00,
2013-01-15 00:25:00,24.3,13.5,30.37,ENE,78,0.0,0.0,63,0.00,,,0.00,VWS V14.01,2013-01-15 08:25:00,
2013-01-15 00:26:00,24.3,13.5,30.37,ENE,78,0.0,0.0,63,0.00,,,0.00,VWS V14.01,2013-01-15 08:26:00,
2013-01-15 00:27:00,24.6,13.8,30.34,ENE,78,0.0,0.0,63,0.00,,,0.00,VWS V14.01,2013-01-15 08:27:00,
2013-01-15 00:28:00,24.3,13.5,30.34,ENE,78,0.0,0.0,63,0.00,,,0.00,VWS V14.01,2013-01-15 08:28:00,
2013-01-15 00:29:00,24.3,13.5,30.34,ENE,78,0.0,0.0,63,0.00,,,0.00,VWS V14.01,2013-01-15 08:29:00,
2013-01-15 00:30:00,24.3,13.5,30.34,ENE,78,0.0,0.0,63,0.00,,,0.00,VWS V14.01,2013-01-15 08:30:00,
2013-01-15 00:31:00,24.4,13.7,30.34,ENE,78,0.0,0.0,63,0.00,,,0.00,VWS V14.01,2013-01-15 08:31:00,
2013-01-15 00:32:00,24.6,13.8,30.34,ENE,78,0.0,0.0,63,0.00,,,0.00,VWS V14.01,2013-01-15 08:32:00,
2013-01-15 00:33:00,24.4,13.7,30.34,ENE,78,0.0,0.0,63,0.00,,,0.00,VWS V14.01,2013-01-15 08:33:00,
2013-01-15 00:34:00,24.4,13.7,30.34,ENE,78,0.0,0.0,63,0.00,,,0.00,VWS V14.01,2013-01-15 08:34:00,
2013-01-15 00:35:00,24.4,13.7,30.34,ENE,78,0.0,0.0,63,0.00,,,0.00,VWS V14.01,2013-01-15 08:35:00,
2013-01-15 00:36:00,24.4,13.7,30.34,ENE,78,0.0,0.0,63,0.00,,,0.00,VWS V14.01,2013-01-15 08:36:00,
2013-01-15 00:37:00,24.4,13.7,30.37,ENE,78,0.0,0.0,63,0.00,,,0.00,VWS V14.01,2013-01-15 08:37:00,
2013-01-15 00:38:00,24.4,13.7,30.34,ENE,78,0.0,0.0,63,0.00,,,0.00,VWS V14.01,2013-01-15 08:38:00,
2013-01-15 00:39:00,24.4,13.7,30.34,ENE,78,0.0,0.0,63,0.00,,,0.00,VWS V14.01,2013-01-15 08:39:00,
2013-01-15 00:40:00,24.4,13.7,30.34,ENE,78,0.0,0.0,63,0.00,,,0.00,VWS V14.01,2013-01-15 08:40:00,
2013-01-15 00:41:00,24.4,13.7,30.34,ENE,78,0.0,0.0,63,0.00,,,0.00,VWS V14.01,2013-01-15 08:41:00,
2013-01-15 00:42:00,24.4,13.7,30.37,ENE,78,0.0,0.0,63,0.00,,,0.00,VWS V14.01,2013-01-15 08:42:00,
2013-01-15 00:43:00,24.4,13.7,30.37,ENE,78,0.0,0.0,63,0.00,,,0.00,VWS V14.01,2013-01-15 08:43:00,
2013-01-15 00:44:00,24.4,13.7,30.37,ENE,78,0.0,0.0,63,0.00,,,0.00,VWS V14.01,2013-01-15 08:44:00,
2013-01-15 00:45:00,24.4,13.7,30.37,ENE,78,0.0,0.0,63,0.00,,,0.00,VWS V14.01,2013-01-15 08:45:00,
2013-01-15 00:46:00,24.4,13.7,30.37,ENE,78,0.0,0.0,63,0.00,,,0.00,VWS V14.01,2013-01-15 08:46:00,
2013-01-15 00:47:00,24.4,13.3,30.37,ENE,78,0.0,0.0,62,0.00,,,0.00,VWS V14.01,2013-01-15 08:47:00,
2013-01-15 00:48:00,24.4,13.7,30.37,ENE,78,0.0,0.0,63,0.00,,,0.00,VWS V14.01,2013-01-15 08:48:00,
2013-01-15 00:49:00,24.4,13.7,30.37,ENE,78,0.0,0.0,63,0.00,,,0.00,VWS V14.01,2013-01-15 08:49:00,
2013-01-15 00:50:00,24.4,13.7,30.37,ENE,78,0.0,0.0,63,0.00,,,0.00,VWS V14.01,2013-01-15 08:50:00,
2013-01-15 00:51:00,24.4,13.7,30.37,ENE,78,0.0,0.0,63,0.00,,,0.00,VWS V14.01,2013-01-15 08:51:00,
2013-01-15 00:52:00,24.1,13.0,30.37,ENE,78,0.0,0.0,62,0.00,,,0.00,VWS V14.01,2013-01-15 08:52:00,
2013-01-15 00:53:00,24.4,13.7,30.37,ENE,78,0.0,0.0,63,0.00,,,0.00,VWS V14.01,2013-01-15 08:53:00,
2013-01-15 00:54:00,24.4,13.7,30.37,ENE,78,0.0,0.0,63,0.00,,,0.00,VWS V14.01,2013-01-15 08:54:00,
2013-01-15 00:55:00,24.4,13.7,30.37,ENE,78,0.0,0.0,63,0.00,,,0.00,VWS V14.01,2013-01-15 08:55:00,
2013-01-15 00:56:00,24.4,13.7,30.37,ENE,78,0.0,0.0,63,0.00,,,0.00,VWS V14.01,2013-01-15 08:56:00,
2013-01-15 00:57:00,23.7,12.6,30.37,ENE,78,0.0,0.0,62,0.00,,,0.00,VWS V14.01,2013-01-15 08:57:00,
2013-01-15 00:58:00,24.6,13.8,30.37,ENE,78,0.0,0.0,63,0.00,,,0.00,VWS V14.01,2013-01-15 08:58:00,
2013-01-15 00:59:00,24.6,13.8,30.37,ENE,78,0.0,0.0,63,0.00,,,0.00,VWS V14.01,2013-01-15 08:59:00,
2013-01-15 01:00:00,24.6,13.8,30.37,ENE,78,0.0,0.0,63,0.00,,,0.00,VWS V14.01,2013-01-15 09:00:00,
2013-01-15 01:01:00,24.6,13.8,30.37,ENE,78,0.0,0.0,63,0.00,,,0.00,VWS V14.01,2013-01-15 09:01:00,
2013-01-15 01:02:00,23.5,12.4,30.37,ENE,78,0.0,0.0,62,0.00,,SCT050,0.00,VWS V14.01,2013-01-15 09:02:00,
2013-01-15 01:03:00,24.6,13.8,30.37,ENE,78,0.0,0.0,63,0.00,,,0.00,VWS V14.01,2013-01-15 09:03:00,
2013-01-15 01:04:00,24.4,13.7,30.37,ENE,78,0.0,0.0,63,0.00,,,0.00,VWS V14.01,2013-01-15 09:04:00,
2013-01-15 01:05:00,24.4,13.7,30.37,ENE,78,0.0,0.0,63,0.00,,,0.00,VWS V14.01,2013-01-15 09:05:00,
2013-01-15 01:06:00,24.6,13.8,30.37,ENE,78,0.0,0.0,63,0.00,,,0.00,VWS V14.01,2013-01-15 09:06:00,
2013-01-15 01:07:00,23.0,11.9,30.37,ENE,78,0.0,0.0,62,0.00,,SCT050,0.00,VWS V14.01,2013-01-15 09:07:00,
2013-01-15 01:08:00,24.6,13.8,30.37,ENE,78,0.0,0.0,63,0.00,,,0.00,VWS V14.01,2013-01-15 09:08:00,
2013-01-15 01:09:00,24.6,13.8,30.37,ENE,78,2.2,2.2,63,0.00,,,0.00,VWS V14.01,2013-01-15 09:09:00,
2013-01-15 01:10:00,24.6,13.8,30.37,ENE,78,3.6,3.6,63,0.00,,,0.00,VWS V14.01,2013-01-15 09:10:00,
2013-01-15 01:11:00,24.6,13.8,30.37,ENE,78,2.7,3.6,63,0.00,,,0.00,VWS V14.01,2013-01-15 09:11:00,
2013-01-15 01:12:00,22.5,11.4,30.37,ENE,78,0.0,0.0,62,0.00,,SCT050,0.00,VWS V14.01,2013-01-15 09:12:00,
2013-01-15 01:13:00,24.6,13.8,30.34,ENE,78,0.0,2.2,63,0.00,,,0.00,VWS V14.01,2013-01-15 09:13:00,
2013-01-15 01:14:00,24.6,13.8,30.34,ENE,78,0.0,0.0,63,0.00,,,0.00,VWS V14.01,2013-01-15 09:14:00,
2013-01-15 01:15:00,24.6,13.8,30.34,ENE,78,0.0,0.0,63,0.00,,,0.00,VWS V14.01,2013-01-15 09:15:00,
2013-01-15 01:16:00,24.6,13.8,30.34,ENE,78,0.0,0.0,63,0.00,,,0.00,VWS V14.01,2013-01-15 09:16:00,
2013-01-15 01:17:00,21.9,10.9,30.37,ENE,78,0.0,0.0,62,0.00,,BKN050,0.00,VWS V14.01,2013-01-15 09:17:00,
2013-01-15 01:18:00,24.6,13.8,30.34,ENE,78,0.0,0.0,63,0.00,,,0.00,VWS V14.01,2013-01-15 09:18:00,
2013-01-15 01:19:00,24.6,13.8,30.34,ENE,78,0.0,0.0,63,0.00,,,0.00,VWS V14.01,2013-01-15 09:19:00,
2013-01-15 01:20:00,24.6,13.8,30.34,ENE,78,0.0,0.0,63,0.00,,,0.00,VWS V14.01,2013-01-15 09:20:00,
2013-01-15 01:21:00,24.6,13.8,30.34,ENE,78,0.0,0.0,63,0.00,,,0.00,VWS V14.01,2013-01-15 09:21:00,
2013-01-15 01:22:00,21.7,10.7,30.37,ENE,78,0.0,0.0,62,0.00,,BKN050,0.00,VWS V14.01,2013-01-15 09:22:00,
2013-01-15 01:23:00,24.6,13.8,30.34,ENE,78,0.0,0.0,63,0.00,,,0.00,VWS V14.01,2013-01-15 09:23:00,
2013-01-15 01:24:00,24.6,13.8,30.34,ENE,78,0.0,0.0,63,0.00,,,0.00,VWS V14.01,2013-01-15 09:24:00,
2013-01-15 01:26:00,24.6,13.8,30.34,ENE,78,0.0,0.0,63,0.00,,,0.00,VWS V14.01,2013-01-15 09:26:00,
2013-01-15 01:27:00,21.0,10.1,30.37,ENE,78,0.0,0.0,62,0.00,,BKN050,0.00,VWS V14.01,2013-01-15 09:27:00,
2013-01-15 01:28:00,24.6,13.8,30.34,ENE,78,0.0,0.0,63,0.00,,,0.00,VWS V14.01,2013-01-15 09:28:00,
2013-01-15 01:29:00,24.6,13.8,30.34,ENE,78,0.0,0.0,63,0.00,,,0.00,VWS V14.01,2013-01-15 09:29:00,
2013-01-15 01:30:00,24.6,13.8,30.34,ENE,78,0.0,0.0,63,0.00,,,0.00,VWS V14.01,2013-01-15 09:30:00,
2013-01-15 01:31:00,24.8,14.0,30.34,ENE,78,0.0,0.0,63,0.00,,,0.00,VWS V14.01,2013-01-15 09:31:00,
2013-01-15 01:32:00,20.5,9.6,30.37,ENE,78,0.0,0.0,62,0.00,,BKN050,0.00,VWS V14.01,2013-01-15 09:32:00,
2013-01-15 01:33:00,24.6,13.8,30.34,ENE,78,0.0,0.0,63,0.00,,,0.00,VWS V14.01,2013-01-15 09:33:00,
2013-01-15 01:34:00,24.6,13.8,30.34,ENE,78,0.0,0.0,63,0.00,,,0.00,VWS V14.01,2013-01-15 09:34:00,
2013-01-15 01:35:00,24.6,13.8,30.34,ENE,78,0.0,0.0,63,0.00,,,0.00,VWS V14.01,2013-01-15 09:35:00,
2013-01-15 01:36:00,24.6,13.8,30.34,ENE,78,0.0,0.0,63,0.00,,,0.00,VWS V14.01,2013-01-15 09:36:00,
2013-01-15 01:37:00,20.1,9.2,30.37,ENE,78,0.0,0.0,62,0.00,,BKN050,0.00,VWS V14.01,2013-01-15 09:37:00,
2013-01-15 01:38:00,24.6,13.8,30.34,ENE,78,0.0,0.0,63,0.00,,,0.00,VWS V14.01,2013-01-15 09:38:00,
2013-01-15 01:39:00,24.6,13.8,30.34,ENE,78,0.0,0.0,63,0.00,,,0.00,VWS V14.01,2013-01-15 09:39:00,
2013-01-15 01:40:00,24.6,13.8,30.34,ENE,78,0.0,0.0,63,0.00,,,0.00,VWS V14.01,2013-01-15 09:40:00,
2013-01-15 01:41:00,24.4,13.7,30.34,ENE,78,0.0,0.0,63,0.00,,,0.00,VWS V14.01,2013-01-15 09:41:00,
2013-01-15 01:42:00,19.8,8.9,30.37,ENE,78,0.0,0.0,62,0.00,,BKN050,0.00,VWS V14.01,2013-01-15 09:42:00,
2013-01-15 01:43:00,24.4,13.7,30.37,ENE,78,0.0,0.0,63,0.00,,,0.00,VWS V14.01,2013-01-15 09:43:00,
2013-01-15 01:44:00,24.4,13.7,30.37,ENE,78,0.0,0.0,63,0.00,,,0.00,VWS V14.01,2013-01-15 09:44:00,
2013-01-15 01:45:00,24.4,13.7,30.37,ENE,78,0.0,0.0,63,0.00,,,0.00,VWS V14.01,2013-01-15 09:45:00,
2013-01-15 01:46:00,24.4,13.7,30.37,ENE,78,0.0,0.0,63,0.00,,,0.00,VWS V14.01,2013-01-15 09:46:00,
2013-01-15 01:47:00,20.1,9.9,30.37,ENE,78,0.0,0.0,64,0.00,,BKN050,0.00,VWS V14.01,2013-01-15 09:47:00,
2013-01-15 01:48:00,24.4,13.7,30.37,ENE,78,0.0,0.0,63,0.00,,,0.00,VWS V14.01,2013-01-15 09:48:00,
2013-01-15 01:49:00,24.4,13.7,30.37,ENE,78,0.0,0.0,63,0.00,,,0.00,VWS V14.01,2013-01-15 09:49:00,
2013-01-15 01:50:00,24.4,13.7,30.37,ENE,78,0.0,0.0,63,0.00,,,0.00,VWS V14.01,2013-01-15 09:50:00,
2013-01-15 01:51:00,24.4,13.7,30.37,ENE,78,0.0,0.0,63,0.00,,,0.00,VWS V14.01,2013-01-15 09:51:00,
2013-01-15 01:52:00,19.8,9.2,30.40,ENE,78,0.0,0.0,63,0.00,,BKN050,0.00,VWS V14.01,2013-01-15 09:52:00,
2013-01-15 01:53:00,24.4,13.3,30.37,ENE,78,0.0,0.0,62,0.00,,,0.00,VWS V14.01,2013-01-15 09:53:00,
2013-01-15 01:54:00,24.4,13.3,30.37,ENE,78,0.0,0.0,62,0.00,,,0.00,VWS V14.01,2013-01-15 09:54:00,
2013-01-15 01:55:00,24.3,13.1,30.37,ENE,78,0.0,0.0,62,0.00,,,0.00,VWS V14.01,2013-01-15 09:55:00,
2013-01-15 01:56:00,24.3,13.1,30.37,ENE,78,0.0,0.0,62,0.00,,,0.00,VWS V14.01,2013-01-15 09:56:00,
2013-01-15 01:57:00,19.2,8.7,30.40,ENE,78,0.0,0.0,63,0.00,,BKN050,0.00,VWS V14.01,2013-01-15 09:57:00,
2013-01-15 01:58:00,24.3,13.1,30.37,ENE,78,0.0,0.0,62,0.00,,,0.00,VWS V14.01,2013-01-15 09:58:00,
2013-01-15 01:59:00,24.1,13.0,30.37,ENE,78,0.0,0.0,62,0.00,,,0.00,VWS V14.01,2013-01-15 09:59:00,
2013-01-15 02:00:00,24.1,13.0,30.37,ENE,78,0.0,0.0,62,0.00,,,0.00,VWS V14.01,2013-01-15 10:00:00,
2013-01-15 02:01:00,23.9,12.8,30.37,ENE,78,0.0,0.0,62,0.00,,,0.00,VWS V14.01,2013-01-15 10:01:00,
2013-01-15 02:02:00,19.0,8.5,30.40,ENE,78,0.0,0.0,63,0.00,,BKN050,0.00,VWS V14.01,2013-01-15 10:02:00,
2013-01-15 02:03:00,23.9,12.8,30.37,ENE,78,0.0,0.0,62,0.00,,,0.00,VWS V14.01,2013-01-15 10:03:00,
2013-01-15 02:04:00,23.7,12.6,30.37,ENE,78,0.0,0.0,62,0.00,,,0.00,VWS V14.01,2013-01-15 10:04:00,
2013-01-15 02:05:00,23.5,12.4,30.37,ENE,78,0.0,0.0,62,0.00,,,0.00,VWS V14.01,2013-01-15 10:05:00,
2013-01-15 02:06:00,23.5,12.4,30.37,ENE,78,0.0,0.0,62,0.00,,,0.00,VWS V14.01,2013-01-15 10:06:00,
2013-01-15 02:07:00,18.9,8.4,30.40,ENE,78,0.0,0.0,63,0.00,,BKN050,0.00,VWS V14.01,2013-01-15 10:07:00,
2013-01-15 02:08:00,23.5,12.4,30.37,ENE,78,0.0,0.0,62,0.00,,,0.00,VWS V14.01,2013-01-15 10:08:00,
2013-01-15 02:09:00,23.4,12.3,30.37,ENE,78,0.0,0.0,62,0.00,,,0.00,VWS V14.01,2013-01-15 10:09:00,
2013-01-15 02:10:00,23.4,12.3,30.37,ENE,78,0.0,0.0,62,0.00,,,0.00,VWS V14.01,2013-01-15 10:10:00,
2013-01-15 02:11:00,23.2,12.1,30.37,ENE,78,0.0,0.0,62,0.00,,,0.00,VWS V14.01,2013-01-15 10:11:00,
2013-01-15 02:12:00,23.0,11.9,30.37,ENE,78,0.0,0.0,62,0.00,,,0.00,VWS V14.01,2013-01-15 10:12:00,
2013-01-15 02:13:00,23.0,11.9,30.37,ENE,78,0.0,0.0,62,0.00,,,0.00,VWS V14.01,2013-01-15 10:13:00,
2013-01-15 02:14:00,22.8,11.8,30.37,ENE,78,0.0,0.0,62,0.00,,,0.00,VWS V14.01,2013-01-15 10:14:00,
2013-01-15 02:15:00,22.8,11.8,30.37,ENE,78,0.0,0.0,62,0.00,,,0.00,VWS V14.01,2013-01-15 10:15:00,
2013-01-15 02:16:00,22.8,11.8,30.37,ENE,78,0.0,0.0,62,0.00,,,0.00,VWS V14.01,2013-01-15 10:16:00,
2013-01-15 02:17:00,22.6,11.6,30.37,ENE,78,0.0,0.0,62,0.00,,,0.00,VWS V14.01,2013-01-15 10:17:00,
2013-01-15 02:18:00,22.5,11.4,30.37,ENE,78,0.0,0.0,62,0.00,,,0.00,VWS V14.01,2013-01-15 10:18:00,
2013-01-15 02:19:00,22.5,11.4,30.37,ENE,78,0.0,0.0,62,0.00,,,0.00,VWS V14.01,2013-01-15 10:19:00,
2013-01-15 02:20:00,22.1,10.7,30.37,ENE,78,0.0,0.0,61,0.00,,,0.00,VWS V14.01,2013-01-15 10:20:00,
2013-01-15 02:21:00,22.1,10.7,30.37,ENE,78,0.0,0.0,61,0.00,,,0.00,VWS V14.01,2013-01-15 10:21:00,
2013-01-15 02:22:00,21.9,10.6,30.37,ENE,78,0.0,0.0,61,0.00,,,0.00,VWS V14.01,2013-01-15 10:22:00,
2013-01-15 02:23:00,21.9,10.9,30.37,ENE,78,0.0,2.2,62,0.00,,,0.00,VWS V14.01,2013-01-15 10:23:00,
2013-01-15 02:24:00,21.9,10.9,30.37,ENE,78,0.0,0.0,62,0.00,,,0.00,VWS V14.01,2013-01-15 10:24:00,
2013-01-15 02:25:00,21.9,10.9,30.37,ENE,78,0.0,0.0,62,0.00,,,0.00,VWS V14.01,2013-01-15 10:25:00,
2013-01-15 02:26:00,21.9,10.9,30.37,ENE,78,0.0,0.0,62,0.00,,,0.00,VWS V14.01,2013-01-15 10:26:00,
2013-01-15 02:27:00,21.9,10.9,30.37,ENE,78,0.0,0.0,62,0.00,,,0.00,VWS V14.01,2013-01-15 10:27:00,
2013-01-15 02:28:00,21.9,10.9,30.37,ENE,78,0.0,0.0,62,0.00,,,0.00,VWS V14.01,2013-01-15 10:28:00,
2013-01-15 02:29:00,21.7,10.7,30.37,ENE,78,0.0,0.0,62,0.00,,,0.00,VWS V14.01,2013-01-15 10:29:00,
2013-01-15 02:30:00,21.6,10.6,30.37,ENE,78,0.0,0.0,62,0.00,,,0.00,VWS V14.01,2013-01-15 10:30:00,
2013-01-15 02:31:00,21.4,10.4,30.37,ENE,78,0.0,0.0,62,0.00,,,0.00,VWS V14.01,2013-01-15 10:31:00,
2013-01-15 02:32:00,21.2,10.2,30.37,ENE,78,0.0,0.0,62,0.00,,,0.00,VWS V14.01,2013-01-15 10:32:00,
2013-01-15 02:33:00,21.0,10.1,30.37,ENE,78,0.0,0.0,62,0.00,,,0.00,VWS V14.01,2013-01-15 10:33:00,
2013-01-15 02:34:00,20.8,9.9,30.37,ENE,78,0.0,0.0,62,0.00,,,0.00,VWS V14.01,2013-01-15 10:34:00,
2013-01-15 02:35:00,20.8,9.9,30.37,ENE,78,0.0,0.0,62,0.00,,,0.00,VWS V14.01,2013-01-15 10:35:00,
2013-01-15 02:36:00,20.7,9.7,30.37,ENE,78,0.0,0.0,62,0.00,,,0.00,VWS V14.01,2013-01-15 10:36:00,
2013-01-15 02:37:00,20.7,9.7,30.37,ENE,78,0.0,0.0,62,0.00,,,0.00,VWS V14.01,2013-01-15 10:37:00,
2013-01-15 02:38:00,20.5,9.6,30.37,ENE,78,0.0,0.0,62,0.00,,,0.00,VWS V14.01,2013-01-15 10:38:00,
2013-01-15 02:39:00,20.3,9.4,30.37,ENE,78,0.0,0.0,62,0.00,,,0.00,VWS V14.01,2013-01-15 10:39:00,
2013-01-15 02:40:00,20.3,9.4,30.37,ENE,78,0.0,0.0,62,0.00,,,0.00,VWS V14.01,2013-01-15 10:40:00,
2013-01-15 02:41:00,20.3,9.4,30.37,ENE,78,0.0,0.0,62,0.00,,,0.00,VWS V14.01,2013-01-15 10:41:00,
2013-01-15 02:42:00,20.1,9.2,30.37,ENE,78,0.0,0.0,62,0.00,,,0.00,VWS V14.01,2013-01-15 10:42:00,
2013-01-15 02:43:00,20.1,9.2,30.37,ENE,78,0.0,0.0,62,0.00,,,0.00,VWS V14.01,2013-01-15 10:43:00,
2013-01-15 02:44:00,19.9,9.0,30.37,ENE,78,0.0,0.0,62,0.00,,,0.00,VWS V14.01,2013-01-15 10:44:00,
2013-01-15 02:45:00,19.8,8.9,30.37,ENE,78,0.0,0.0,62,0.00,,,0.00,VWS V14.01,2013-01-15 10:45:00,
2013-01-15 02:46:00,19.8,8.9,30.37,ENE,78,0.0,0.0,62,0.00,,,0.00,VWS V14.01,2013-01-15 10:46:00,
2013-01-15 02:47:00,19.8,8.9,30.37,ENE,78,0.0,0.0,62,0.00,,,0.00,VWS V14.01,2013-01-15 10:47:00,
2013-01-15 02:48:00,19.8,8.9,30.37,ENE,78,0.0,0.0,62,0.00,,,0.00,VWS V14.01,2013-01-15 10:48:00,
2013-01-15 02:49:00,19.9,9.4,30.37,ENE,78,0.0,0.0,63,0.00,,,0.00,VWS V14.01,2013-01-15 10:49:00,
2013-01-15 02:50:00,19.9,9.4,30.37,ENE,78,0.0,0.0,63,0.00,,,0.00,VWS V14.01,2013-01-15 10:50:00,
2013-01-15 02:51:00,20.1,9.6,30.37,ENE,78,0.0,0.0,63,0.00,,,0.00,VWS V14.01,2013-01-15 10:51:00,
2013-01-15 02:52:00,20.1,9.9,30.37,ENE,78,0.0,0.0,64,0.00,,,0.00,VWS V14.01,2013-01-15 10:52:00,
2013-01-15 02:53:00,20.1,9.9,30.37,ENE,78,0.0,0.0,64,0.00,,,0.00,VWS V14.01,2013-01-15 10:53:00,
2013-01-15 02:54:00,20.1,9.9,30.37,ENE,78,3.1,3.1,64,0.00,,,0.00,VWS V14.01,2013-01-15 10:54:00,
2013-01-15 02:55:00,20.1,9.9,30.37,ENE,78,3.1,3.1,64,0.00,,,0.00,VWS V14.01,2013-01-15 10:55:00,
2013-01-15 02:56:00,19.9,9.4,30.37,ENE,78,0.0,3.1,63,0.00,,,0.00,VWS V14.01,2013-01-15 10:56:00,
2013-01-15 02:57:00,19.9,9.4,30.40,ENE,78,0.0,0.0,63,0.00,,,0.00,VWS V14.01,2013-01-15 10:57:00,
2013-01-15 02:58:00,19.8,9.2,30.40,ENE,78,0.0,0.0,63,0.00,,,0.00,VWS V14.01,2013-01-15 10:58:00,
2013-01-15 02:59:00,19.6,8.7,30.40,ENE,78,0.0,0.0,62,0.00,,,0.00,VWS V14.01,2013-01-15 10:59:00,
2013-01-15 03:00:00,19.4,8.9,30.40,ENE,78,0.0,0.0,63,0.00,,,0.00,VWS V14.01,2013-01-15 11:00:00,
2013-01-15 03:01:00,19.4,8.9,30.40,ENE,78,0.0,0.0,63,0.00,,,0.00,VWS V14.01,2013-01-15 11:01:00,
2013-01-15 03:02:00,19.2,8.7,30.40,ENE,78,0.0,0.0,63,0.00,,,0.00,VWS V14.01,2013-01-15 11:02:00,
2013-01-15 03:03:00,19.2,8.7,30.40,ENE,78,0.0,0.0,63,0.00,,BKN050,0.00,VWS V14.01,2013-01-15 11:03:00,
2013-01-15 03:04:00,19.2,8.7,30.40,ENE,78,0.0,0.0,63,0.00,,BKN050,0.00,VWS V14.01,2013-01-15 11:04:00,
2013-01-15 03:05:00,19.2,8.7,30.40,ENE,78,0.0,0.0,63,0.00,,BKN050,0.00,VWS V14.01,2013-01-15 11:05:00,
2013-01-15 03:06:00,19.2,8.7,30.40,ENE,78,0.0,0.0,63,0.00,,BKN050,0.00,VWS V14.01,2013-01-15 11:06:00,
2013-01-15 03:07:00,19.2,8.7,30.40,ENE,78,0.0,0.0,63,0.00,,BKN050,0.00,VWS V14.01,2013-01-15 11:07:00,
2013-01-15 03:08:00,19.0,8.5,30.40,ENE,78,0.0,0.0,63,0.00,,BKN050,0.00,VWS V14.01,2013-01-15 11:08:00,
2013-01-15 03:09:00,18.9,8.4,30.40,ENE,78,0.0,0.0,63,0.00,,BKN050,0.00,VWS V14.01,2013-01-15 11:09:00,
2013-01-15 03:10:00,18.9,8.4,30.40,ENE,78,0.0,0.0,63,0.00,,BKN050,0.00,VWS V14.01,2013-01-15 11:10:00,
2013-01-15 03:11:00,18.9,8.4,30.40,ENE,78,0.0,0.0,63,0.00,,BKN050,0.00,VWS V14.01,2013-01-15 11:11:00,
2013-01-15 03:12:00,18.9,8.4,30.40,ENE,78,0.0,0.0,63,0.00,,BKN050,0.00,VWS V14.01,2013-01-15 11:12:00,
2013-01-15 03:13:00,18.9,8.4,30.40,ENE,78,0.0,0.0,63,0.00,,BKN050,0.00,VWS V14.01,2013-01-15 11:13:00,
2013-01-15 03:14:00,18.9,8.4,30.40,ENE,78,0.0,0.0,63,0.00,,BKN050,0.00,VWS V14.01,2013-01-15 11:14:00,
2013-01-15 03:15:00,18.9,8.4,30.40,ENE,78,0.0,0.0,63,0.00,,BKN050,0.00,VWS V14.01,2013-01-15 11:15:00,
2013-01-15 03:16:00,19.0,8.5,30.40,ENE,78,0.0,0.0,63,0.00,,BKN050,0.00,VWS V14.01,2013-01-15 11:16:00,
2013-01-15 03:44:00,16.0,6.3,30.40,ENE,78,0.0,0.0,65,0.00,,BKN050,0.00,VWS V14.01,2013-01-15 11:44:00,
2013-01-15 03:49:00,16.2,6.8,30.40,ENE,78,0.0,0.0,66,0.00,,,0.00,VWS V14.01,2013-01-15 11:49:00,
2013-01-15 03:54:00,15.8,6.1,30.40,ENE,78,0.0,0.0,65,0.00,,,0.00,VWS V14.01,2013-01-15 11:54:00,
2013-01-15 03:59:00,15.6,6.3,30.40,ENE,78,0.0,0.0,66,0.00,,BKN050,0.00,VWS V14.01,2013-01-15 11:59:00,
2013-01-15 04:04:00,15.6,6.3,30.40,ENE,78,0.0,0.0,66,0.00,,BKN050,0.00,VWS V14.01,2013-01-15 12:04:00,
2013-01-15 04:09:00,15.6,6.3,30.40,ENE,78,0.0,0.0,66,0.00,,BKN050,0.00,VWS V14.01,2013-01-15 12:09:00,
2013-01-15 04:14:00,15.4,5.8,30.40,ENE,78,0.0,0.0,65,0.00,,BKN050,0.00,VWS V14.01,2013-01-15 12:14:00,
2013-01-15 04:19:00,15.3,5.9,30.40,ENE,78,0.0,0.0,66,0.00,,BKN050,0.00,VWS V14.01,2013-01-15 12:19:00,
2013-01-15 04:24:00,15.3,5.9,30.40,ENE,78,0.0,0.0,66,0.00,,BKN050,0.00,VWS V14.01,2013-01-15 12:24:00,
2013-01-15 04:29:00,15.1,5.8,30.40,ENE,78,0.0,0.0,66,0.00,,BKN050,0.00,VWS V14.01,2013-01-15 12:29:00,
2013-01-15 04:34:00,15.3,5.9,30.40,ENE,78,0.0,0.0,66,0.00,,BKN050,0.00,VWS V14.01,2013-01-15 12:34:00,
2013-01-15 04:39:00,15.6,6.6,30.40,ENE,78,0.0,0.0,67,0.00,,BKN050,0.00,VWS V14.01,2013-01-15 12:39:00,
2013-01-15 04:44:00,16.2,7.2,30.40,ENE,78,0.0,0.0,67,0.00,,BKN050,0.00,VWS V14.01,2013-01-15 12:44:00,
2013-01-15 04:49:00,16.5,7.8,30.40,ENE,78,0.0,0.0,68,0.00,,BKN050,0.00,VWS V14.01,2013-01-15 12:49:00,
2013-01-15 04:54:00,17.1,8.3,30.40,ENE,78,0.0,0.0,68,0.00,,BKN050,0.00,VWS V14.01,2013-01-15 12:54:00,
2013-01-15 04:59:00,17.2,8.5,30.40,ENE,78,0.0,0.0,68,0.00,,BKN130,0.00,VWS V14.01,2013-01-15 12:59:00,
2013-01-15 05:04:00,17.4,8.7,30.40,ENE,78,0.0,0.0,68,0.00,,BKN130,0.00,VWS V14.01,2013-01-15 13:04:00,
2013-01-15 05:09:00,17.6,8.9,30.40,ENE,78,0.0,0.0,68,0.00,,BKN130,0.00,VWS V14.01,2013-01-15 13:09:00,
2013-01-15 05:14:00,17.6,8.5,30.40,ENE,78,3.1,3.1,67,0.00,,BKN130,0.00,VWS V14.01,2013-01-15 13:14:00,
2013-01-15 05:19:00,17.4,8.4,30.40,ENE,78,0.0,0.0,67,0.00,,BKN130,0.00,VWS V14.01,2013-01-15 13:19:00,
2013-01-15 05:24:00,17.6,8.5,30.40,ENE,78,0.0,0.0,67,0.00,,BKN130,0.00,VWS V14.01,2013-01-15 13:24:00,
2013-01-15 05:29:00,17.6,8.9,30.40,ENE,78,0.0,0.0,68,0.00,,BKN130,0.00,VWS V14.01,2013-01-15 13:29:00,
2013-01-15 05:34:00,18.0,9.2,30.40,ENE,78,0.0,0.0,68,0.00,,BKN130,0.00,VWS V14.01,2013-01-15 13:34:00,
2013-01-15 05:39:00,18.1,9.4,30.40,ENE,78,0.0,0.0,68,0.00,,BKN130,0.00,VWS V14.01,2013-01-15 13:39:00,
2013-01-15 05:44:00,18.1,9.4,30.40,ENE,78,0.0,0.0,68,0.00,,BKN130,0.00,VWS V14.01,2013-01-15 13:44:00,
2013-01-15 05:49:00,18.3,9.5,30.40,ENE,78,0.0,0.0,68,0.00,,BKN130,0.00,VWS V14.01,2013-01-15 13:49:00,
2013-01-15 05:54:00,18.5,9.7,30.43,ENE,78,0.0,0.0,68,0.00,,BKN130,0.00,VWS V14.01,2013-01-15 13:54:00,
2013-01-15 05:59:00,18.9,10.1,30.43,ENE,78,0.0,0.0,68,0.00,,BKN130,0.00,VWS V14.01,2013-01-15 13:59:00,
2013-01-15 06:04:00,19.0,10.2,30.43,ENE,78,0.0,0.0,68,0.00,,OVC130,0.00,VWS V14.01,2013-01-15 14:04:00,
2013-01-15 06:09:00,19.4,10.9,30.43,ENE,78,0.0,0.0,69,0.00,,OVC130,0.00,VWS V14.01,2013-01-15 14:09:00,
2013-01-15 06:14:00,19.6,10.8,30.43,ENE,78,0.0,0.0,68,0.00,,OVC130,0.00,VWS V14.01,2013-01-15 14:14:00,
2013-01-15 06:19:00,19.9,11.1,30.43,ENE,78,0.0,0.0,68,0.00,,OVC130,0.00,VWS V14.01,2013-01-15 14:19:00,
2013-01-15 06:24:00,20.1,11.3,30.40,ENE,78,0.0,0.0,68,0.00,,OVC130,0.00,VWS V14.01,2013-01-15 14:24:00,
2013-01-15 06:29:00,20.3,11.4,30.40,ENE,78,0.0,0.0,68,0.00,,OVC130,0.00,VWS V14.01,2013-01-15 14:29:00,
2013-01-15 06:34:00,20.5,11.9,30.40,ENE,78,0.0,0.0,69,0.00,,OVC130,0.00,VWS V14.01,2013-01-15 14:34:00,
2013-01-15 06:39:00,20.7,12.1,30.43,ENE,78,0.0,0.0,69,0.00,,OVC130,0.00,VWS V14.01,2013-01-15 14:39:00,
2013-01-15 06:44:00,21.0,12.5,30.43,ENE,78,0.0,0.0,69,0.00,,OVC130,0.00,VWS V14.01,2013-01-15 14:44:00,
2013-01-15 06:49:00,21.0,12.5,30.43,ENE,78,0.0,0.0,69,0.00,,OVC130,0.00,VWS V14.01,2013-01-15 14:49:00,
2013-01-15 06:54:00,21.2,12.6,30.43,ENE,78,0.0,0.0,69,0.00,,OVC130,0.00,VWS V14.01,2013-01-15 14:54:00,
2013-01-15 06:59:00,21.2,12.6,30.43,ENE,78,0.0,0.0,69,0.00,,OVC130,0.00,VWS V14.01,2013-01-15 14:59:00,
2013-01-15 07:04:00,21.4,12.5,30.43,ENE,78,0.0,0.0,68,0.00,,OVC130,0.00,VWS V14.01,2013-01-15 15:04:00,
2013-01-15 07:09:00,21.6,12.6,30.43,ENE,78,0.0,0.0,68,0.00,,OVC130,0.00,VWS V14.01,2013-01-15 15:09:00,
2013-01-15 07:14:00,21.6,12.6,30.43,ENE,78,0.0,0.0,68,0.00,,OVC130,0.00,VWS V14.01,2013-01-15 15:14:00,
2013-01-15 07:19:00,21.7,12.8,30.43,ENE,78,0.0,0.0,68,0.00,,OVC130,0.00,VWS V14.01,2013-01-15 15:19:00,
2013-01-15 07:24:00,21.7,13.1,30.43,ENE,78,0.0,0.0,69,0.00,,OVC130,0.00,VWS V14.01,2013-01-15 15:24:00,
2013-01-15 07:29:00,21.9,13.3,30.43,ENE,78,0.0,0.0,69,0.00,,SCT010,0.00,VWS V14.01,2013-01-15 15:29:00,
2013-01-15 07:34:00,21.9,13.3,30.43,ENE,78,0.0,0.0,69,0.00,,SCT010,0.00,VWS V14.01,2013-01-15 15:34:00,
2013-01-15 07:39:00,22.1,13.5,30.43,ENE,78,0.0,0.0,69,0.00,,SCT010,0.00,VWS V14.01,2013-01-15 15:39:00,
2013-01-15 07:44:00,22.1,13.5,30.43,ENE,78,0.0,0.0,69,0.00,,SCT010,0.00,VWS V14.01,2013-01-15 15:44:00,
2013-01-15 07:49:00,22.3,13.3,30.43,ENE,78,0.0,0.0,68,0.00,,SCT010,0.00,VWS V14.01,2013-01-15 15:49:00,
2013-01-15 07:53:00,22.5,13.8,30.46,ENE,78,0.0,0.0,69,0.00,,SCT010,0.00,VWS V14.01,2013-01-15 15:53:00,
2013-01-15 07:58:00,22.5,13.8,30.46,ENE,78,0.0,0.0,69,0.00,,BKN010,0.00,VWS V14.01,2013-01-15 15:58:00,
2013-01-15 08:03:00,22.6,14.0,30.46,ENE,78,0.0,0.0,69,0.00,,BKN200,0.00,VWS V14.01,2013-01-15 16:03:00,
2013-01-15 08:08:00,22.8,13.9,30.46,ENE,78,0.0,0.0,68,0.00,,BKN200,0.00,VWS V14.01,2013-01-15 16:08:00,
2013-01-15 08:13:00,22.8,13.9,30.46,ENE,78,0.0,0.0,68,0.00,,BKN200,0.00,VWS V14.01,2013-01-15 16:13:00,
2013-01-15 08:18:00,23.0,14.0,30.46,ENE,78,0.0,0.0,68,0.00,,BKN200,0.00,VWS V14.01,2013-01-15 16:18:00,
2013-01-15 08:23:00,23.2,14.2,30.46,ENE,78,0.0,0.0,68,0.00,,BKN200,0.00,VWS V14.01,2013-01-15 16:23:00,
2013-01-15 08:28:00,23.5,14.6,30.46,ENE,78,0.0,0.0,68,0.00,,BKN200,0.00,VWS V14.01,2013-01-15 16:28:00,
2013-01-15 08:33:00,23.7,14.7,30.46,ENE,78,0.0,0.0,68,0.00,,BKN200,0.00,VWS V14.01,2013-01-15 16:33:00,
2013-01-15 08:38:00,23.9,14.9,30.46,ENE,78,0.0,0.0,68,0.00,,BKN200,0.00,VWS V14.01,2013-01-15 16:38:00,
2013-01-15 08:43:00,24.3,15.2,30.46,ENE,78,0.0,0.0,68,0.00,,BKN200,0.00,VWS V14.01,2013-01-15 16:43:00,
2013-01-15 08:48:00,24.4,15.4,30.46,ENE,78,0.0,0.0,68,0.00,,BKN200,0.00,VWS V14.01,2013-01-15 16:48:00,
2013-01-15 08:53:00,24.6,15.2,30.46,ENE,78,0.0,0.0,67,0.00,,BKN200,0.00,VWS V14.01,2013-01-15 16:53:00,
2013-01-15 08:58:00,25.0,15.6,30.46,ENE,78,0.0,0.0,67,0.00,,OVC200,0.00,VWS V14.01,2013-01-15 16:58:00,
2013-01-15 09:03:00,25.2,15.4,30.46,ENE,78,0.0,0.0,66,0.00,,OVC200,0.00,VWS V14.01,2013-01-15 17:03:00,
2013-01-15 09:08:00,25.2,14.7,30.46,ENE,78,0.0,0.0,64,0.00,,OVC200,0.00,VWS V14.01,2013-01-15 17:08:00,
2013-01-15 09:13:00,25.3,13.8,30.46,ENE,78,0.0,0.0,61,0.00,,OVC200,0.00,VWS V14.01,2013-01-15 17:13:00,
2013-01-15 09:18:00,25.7,14.1,30.46,ENE,78,0.0,0.0,61,0.00,,OVC200,0.00,VWS V14.01,2013-01-15 17:18:00,
2013-01-15 09:23:00,26.1,14.5,30.49,ENE,78,0.0,0.0,61,0.00,,OVC200,0.00,VWS V14.01,2013-01-15 17:23:00,
2013-01-15 09:28:00,26.4,14.8,30.49,ENE,78,0.0,0.0,61,0.00,,OVC200,0.00,VWS V14.01,2013-01-15 17:28:00,
2013-01-15 09:33:00,27.0,14.9,30.49,ENE,78,0.0,0.0,60,0.00,,OVC200,0.00,VWS V14.01,2013-01-15 17:33:00,
2013-01-15 09:38:00,27.1,14.3,30.49,ENE,78,0.0,0.0,58,0.00,,OVC200,0.00,VWS V14.01,2013-01-15 17:38:00,
2013-01-15 09:43:00,27.5,14.3,30.49,ENE,78,0.0,0.0,57,0.00,,OVC200,0.00,VWS V14.01,2013-01-15 17:43:00,
2013-01-15 09:48:00,27.7,14.0,30.49,ENE,78,0.0,2.2,56,0.00,,OVC200,0.00,VWS V14.01,2013-01-15 17:48:00,
2013-01-15 09:53:00,27.9,14.6,30.49,ENE,78,0.0,0.0,57,0.00,,OVC200,0.00,VWS V14.01,2013-01-15 17:53:00,
2013-01-15 09:58:00,27.9,14.6,30.49,ENE,78,0.0,0.0,57,0.00,,OVC200,0.00,VWS V14.01,2013-01-15 17:58:00,
2013-01-15 10:03:00,28.0,14.4,30.49,ENE,78,0.0,0.0,56,0.00,,OVC200,0.00,VWS V14.01,2013-01-15 18:03:00,
2013-01-15 10:08:00,28.0,14.4,30.49,ENE,78,0.0,0.0,56,0.00,,OVC200,0.00,VWS V14.01,2013-01-15 18:08:00,
2013-01-15 10:13:00,28.0,14.4,30.49,ENE,78,0.0,0.0,56,0.00,,OVC200,0.00,VWS V14.01,2013-01-15 18:13:00,
2013-01-15 10:18:00,28.0,14.4,30.49,ENE,78,0.0,0.0,56,0.00,,OVC200,0.00,VWS V14.01,2013-01-15 18:18:00,
2013-01-15 10:23:00,28.4,14.3,30.49,ENE,78,0.0,0.0,55,0.00,,OVC200,0.00,VWS V14.01,2013-01-15 18:23:00,
2013-01-15 10:28:00,28.4,14.3,30.49,ENE,78,0.0,0.0,55,0.00,,OVC200,0.00,VWS V14.01,2013-01-15 18:28:00,
2013-01-15 10:33:00,28.8,14.6,30.49,ENE,78,0.0,0.0,55,0.00,,OVC200,0.00,VWS V14.01,2013-01-15 18:33:00,
2013-01-15 10:38:00,29.3,15.1,30.49,ENE,78,0.0,0.0,55,0.00,,OVC200,0.00,VWS V14.01,2013-01-15 18:38:00,
2013-01-15 10:43:00,29.7,15.5,30.49,ENE,78,0.0,0.0,55,0.00,,OVC200,0.00,VWS V14.01,2013-01-15 18:43:00,
2013-01-15 10:48:00,30.2,15.6,30.49,ENE,78,0.0,0.0,54,0.00,,OVC200,0.00,VWS V14.01,2013-01-15 18:48:00,
2013-01-15 10:53:00,30.2,15.6,30.49,ENE,78,0.0,0.0,54,0.00,,OVC200,0.00,VWS V14.01,2013-01-15 18:53:00,
2013-01-15 10:58:00,30.6,15.5,30.49,ENE,78,0.0,0.0,53,0.00,,OVC200,0.00,VWS V14.01,2013-01-15 18:58:00,
2013-01-15 11:03:00,31.1,15.5,30.49,ENE,78,0.0,0.0,52,0.00,,OVC200,0.00,VWS V14.01,2013-01-15 19:03:00,
2013-01-15 11:08:00,31.3,15.7,30.49,ENE,78,0.0,0.0,52,0.00,,OVC200,0.00,VWS V14.01,2013-01-15 19:08:00,
2013-01-15 11:13:00,31.5,15.4,30.49,ENE,78,0.0,0.0,51,0.00,,OVC200,0.00,VWS V14.01,2013-01-15 19:13:00,
2013-01-15 11:18:00,31.1,15.1,30.49,ENE,78,0.0,0.0,51,0.00,,OVC200,0.00,VWS V14.01,2013-01-15 19:18:00,
2013-01-15 11:23:00,30.7,14.8,30.49,ENE,78,0.0,0.0,51,0.00,,OVC200,0.00,VWS V14.01,2013-01-15 19:23:00,
2013-01-15 11:28:00,30.4,14.4,30.49,ENE,78,2.2,2.2,51,0.00,,OVC200,0.00,VWS V14.01,2013-01-15 19:28:00,
2013-01-15 11:33:00,30.4,14.4,30.49,ENE,78,0.0,2.2,51,0.00,,OVC200,0.00,VWS V14.01,2013-01-15 19:33:00,
2013-01-15 11:38:00,30.2,14.3,30.49,ENE,78,0.0,0.0,51,0.00,,OVC200,0.00,VWS V14.01,2013-01-15 19:38:00,
2013-01-15 11:43:00,30.2,14.3,30.49,ENE,78,0.0,0.0,51,0.00,,OVC200,0.00,VWS V14.01,2013-01-15 19:43:00,
2013-01-15 11:48:00,30.0,14.1,30.49,ENE,78,0.0,0.0,51,0.00,,OVC200,0.00,VWS V14.01,2013-01-15 19:48:00,
2013-01-15 11:53:00,30.0,14.1,30.49,ENE,78,0.0,0.0,51,0.00,,OVC200,0.00,VWS V14.01,2013-01-15 19:53:00,
2013-01-15 11:58:00,30.2,14.7,30.49,ENE,78,0.0,0.0,52,0.00,,OVC200,0.00,VWS V14.01,2013-01-15 19:58:00,
2013-01-15 12:03:00,30.4,14.4,30.49,ENE,78,0.0,0.0,51,0.00,,OVC200,0.00,VWS V14.01,2013-01-15 20:03:00,
2013-01-15 12:08:00,30.4,14.4,30.49,ENE,78,0.0,0.0,51,0.00,,OVC200,0.00,VWS V14.01,2013-01-15 20:08:00,
2013-01-15 12:13:00,30.2,14.7,30.49,ENE,78,0.0,0.0,52,0.00,,OVC200,0.00,VWS V14.01,2013-01-15 20:13:00,
2013-01-15 12:18:00,30.2,14.7,30.49,ENE,78,0.0,0.0,52,0.00,,OVC200,0.00,VWS V14.01,2013-01-15 20:18:00,
2013-01-15 12:23:00,30.4,14.4,30.49,ENE,78,0.0,0.0,51,0.00,,OVC200,0.00,VWS V14.01,2013-01-15 20:23:00,
2013-01-15 12:28:00,30.4,14.4,30.49,ENE,78,0.0,0.0,51,0.00,,OVC200,0.00,VWS V14.01,2013-01-15 20:28:00,
2013-01-15 12:33:00,30.7,15.2,30.49,ENE,78,0.0,0.0,52,0.00,,OVC200,0.00,VWS V14.01,2013-01-15 20:33:00,
2013-01-15 12:38:00,31.1,15.5,30.49,ENE,78,0.0,0.0,52,0.00,,OVC200,0.00,VWS V14.01,2013-01-15 20:38:00,
2013-01-15 12:43:00,30.9,14.9,30.49,ENE,78,2.2,2.2,51,0.00,,OVC200,0.00,VWS V14.01,2013-01-15 20:43:00,
2013-01-15 12:48:00,30.9,14.9,30.49,ENE,78,0.0,0.0,51,0.00,,OVC010,0.00,VWS V14.01,2013-01-15 20:48:00,
2013-01-15 12:53:00,31.1,15.5,30.49,ENE,78,2.7,3.1,52,0.00,,OVC010,0.00,VWS V14.01,2013-01-15 20:53:00,
2013-01-15 12:58:00,31.1,15.1,30.49,ENE,78,0.0,2.7,51,0.00,,OVC006,0.00,VWS V14.01,2013-01-15 20:58:00,
2013-01-15 13:03:00,31.3,15.7,30.49,ENE,78,0.0,0.0,52,0.00,,OVC006,0.00,VWS V14.01,2013-01-15 21:03:00,
2013-01-15 13:08:00,31.5,15.4,30.49,ENE,78,0.0,0.0,51,0.00,,OVC006,0.00,VWS V14.01,2013-01-15 21:08:00,
2013-01-15 13:13:00,31.6,15.6,30.49,ENE,78,0.0,0.0,51,0.00,,OVC006,0.00,VWS V14.01,2013-01-15 21:13:00,
2013-01-15 13:18:00,31.6,15.6,30.49,ENE,78,0.0,0.0,51,0.00,,OVC006,0.00,VWS V14.01,2013-01-15 21:18:00,
2013-01-15 13:23:00,31.8,15.8,30.49,ENE,78,2.2,2.2,51,0.00,,OVC006,0.00,VWS V14.01,2013-01-15 21:23:00,
2013-01-15 13:28:00,32.2,16.5,30.49,West,267,6.3,8.3,52,0.00,,OVC006,0.00,VWS V14.01,2013-01-15 21:28:00,
2013-01-15 13:33:00,32.7,17.0,30.49,West,271,5.4,5.4,52,0.00,,OVC006,0.00,VWS V14.01,2013-01-15 21:33:00,
2013-01-15 13:38:00,33.1,17.4,30.49,West,260,7.2,8.1,52,0.00,,OVC006,0.00,VWS V14.01,2013-01-15 21:38:00,
2013-01-15 13:43:00,33.3,17.1,30.49,West,265,3.1,6.3,51,0.00,,OVC006,0.00,VWS V14.01,2013-01-15 21:43:00,
2013-01-15 13:48:00,33.4,17.3,30.49,West,269,5.8,5.8,51,0.00,,OVC006,0.00,VWS V14.01,2013-01-15 21:48:00,
2013-01-15 13:53:00,33.6,17.4,30.49,WSW,249,4.9,5.8,51,0.00,,OVC006,0.00,VWS V14.01,2013-01-15 21:53:00,
2013-01-15 13:58:00,33.6,17.4,30.49,WSW,241,3.1,3.1,51,0.00,,OVC006,0.00,VWS V14.01,2013-01-15 21:58:00,
2013-01-15 14:03:00,33.4,17.3,30.49,WSW,239,4.0,4.0,51,0.00,,OVC006,0.00,VWS V14.01,2013-01-15 22:03:00,
2013-01-15 14:08:00,33.6,17.4,30.49,SW,229,3.6,5.8,51,0.00,,OVC006,0.00,VWS V14.01,2013-01-15 22:08:00,
2013-01-15 14:13:00,33.3,17.5,30.49,West,263,5.8,8.1,52,0.00,,OVC006,0.00,VWS V14.01,2013-01-15 22:13:00,
2013-01-15 14:18:00,33.3,17.5,30.49,WSW,250,8.1,8.1,52,0.00,,OVC006,0.00,VWS V14.01,2013-01-15 22:18:00,
2013-01-15 14:23:00,33.3,17.5,30.49,SW,234,4.9,5.8,52,0.00,,OVC006,0.00,VWS V14.01,2013-01-15 22:23:00,
2013-01-15 14:28:00,33.1,17.4,30.49,SW,231,4.9,6.3,52,0.00,,OVC006,0.00,VWS V14.01,2013-01-15 22:28:00,
2013-01-15 14:33:00,32.9,17.2,30.49,WSW,251,5.8,5.8,52,0.00,,OVC006,0.00,VWS V14.01,2013-01-15 22:33:00,
2013-01-15 14:38:00,32.9,17.2,30.49,SW,228,3.6,4.5,52,0.00,,OVC006,0.00,VWS V14.01,2013-01-15 22:38:00,
2013-01-15 14:43:00,32.9,17.2,30.49,WSW,239,3.6,4.0,52,0.00,,OVC006,0.00,VWS V14.01,2013-01-15 22:43:00,
2013-01-15 14:48:00,33.1,17.4,30.49,WSW,257,4.0,4.0,52,0.00,,OVC006,0.00,VWS V14.01,2013-01-15 22:48:00,
2013-01-15 14:53:00,33.1,17.4,30.49,WSW,250,6.3,8.7,52,0.00,,OVC006,0.00,VWS V14.01,2013-01-15 22:53:00,
2013-01-15 14:58:00,33.1,17.4,30.49,West,265,7.2,7.2,52,0.00,,OVC006,0.00,VWS V14.01,2013-01-15 22:58:00,
2013-01-15 15:03:00,33.1,16.9,30.49,WNW,283,6.3,6.3,51,0.00,,OVC008,0.00,VWS V14.01,2013-01-15 23:03:00,
2013-01-15 15:08:00,32.9,17.2,30.49,West,262,5.8,6.3,52,0.00,,OVC008,0.00,VWS V14.01,2013-01-15 23:08:00,
2013-01-15 15:13:00,32.9,17.2,30.49,WSW,239,6.3,6.3,52,0.00,,OVC008,0.00,VWS V14.01,2013-01-15 23:13:00,
2013-01-15 15:18:00,32.7,17.0,30.49,West,275,3.6,4.9,52,0.00,,OVC008,0.00,VWS V14.01,2013-01-15 23:18:00,
2013-01-15 15:23:00,32.7,17.0,30.49,SW,235,3.6,4.0,52,0.00,,OVC008,0.00,VWS V14.01,2013-01-15 23:23:00,
2013-01-15 15:28:00,32.5,16.9,30.49,WSW,243,5.4,5.4,52,0.00,,OVC008,0.00,VWS V14.01,2013-01-15 23:28:00,
2013-01-15 15:33:00,32.5,16.9,30.49,WSW,258,4.0,6.3,52,0.00,,OVC008,0.00,VWS V14.01,2013-01-15 23:33:00,
2013-01-15 15:38:00,32.4,17.1,30.49,West,261,8.3,9.2,53,0.00,,OVC008,0.00,VWS V14.01,2013-01-15 23:38:00,
2013-01-15 15:43:00,32.4,17.1,30.49,WSW,255,6.3,7.2,53,0.00,,OVC008,0.00,VWS V14.01,2013-01-15 23:43:00,
2013-01-15 15:48:00,32.2,17.0,30.49,WSW,238,3.6,4.9,53,0.00,,OVC008,0.00,VWS V14.01,2013-01-15 23:48:00,
2013-01-15 15:53:00,32.2,17.4,30.49,WSW,247,3.6,5.8,54,0.00,,OVC008,0.00,VWS V14.01,2013-01-15 23:53:00,
2013-01-15 15:58:00,32.2,17.4,30.49,WSW,250,5.4,5.4,54,0.00,,OVC008,0.00,VWS V14.01,2013-01-15 23:58:00,
2013-01-15 16:03:00,32.2,17.8,30.49,SSW,207,4.9,5.4,55,0.00,,OVC008,0.00,VWS V14.01,2013-01-16 00:03:00,
2013-01-15 16:08:00,32.0,18.1,30.49,SW,230,4.0,5.4,56,0.00,,OVC008,0.00,VWS V14.01,2013-01-16 00:08:00,
2013-01-15 16:13:00,32.0,18.1,30.49,SW,230,2.7,2.7,56,0.00,,OVC008,0.00,VWS V14.01,2013-01-16 00:13:00,
2013-01-15 16:18:00,31.8,18.3,30.49,SW,226,2.2,2.2,57,0.00,,OVC008,0.00,VWS V14.01,2013-01-16 00:18:00,
2013-01-15 16:23:00,31.8,18.3,30.49,SW,227,3.1,3.1,57,0.00,,OVC008,0.00,VWS V14.01,2013-01-16 00:23:00,
2013-01-15 16:28:00,31.6,18.6,30.49,SW,221,2.2,2.2,58,0.00,,OVC008,0.00,VWS V14.01,2013-01-16 00:28:00,
2013-01-15 16:33:00,31.6,18.6,30.49,SW,221,0.0,0.0,58,0.00,,OVC008,0.00,VWS V14.01,2013-01-16 00:33:00,
2013-01-15 16:38:00,31.6,18.6,30.49,SW,221,0.0,0.0,58,0.00,,OVC008,0.00,VWS V14.01,2013-01-16 00:38:00,
2013-01-15 16:43:00,31.6,18.6,30.49,SW,221,0.0,0.0,58,0.00,,OVC008,0.00,VWS V14.01,2013-01-16 00:43:00,
2013-01-15 16:48:00,31.5,18.4,30.49,SW,221,0.0,0.0,58,0.00,,OVC008,0.00,VWS V14.01,2013-01-16 00:48:00,
2013-01-15 16:53:00,31.5,18.4,30.49,SW,221,0.0,0.0,58,0.00,,OVC008,0.00,VWS V14.01,2013-01-16 00:53:00,
2013-01-15 16:58:00,31.5,18.4,30.49,SW,221,0.0,0.0,58,0.00,,OVC008,0.00,VWS V14.01,2013-01-16 00:58:00,
2013-01-15 17:03:00,31.5,18.8,30.49,SW,221,0.0,0.0,59,0.00,,OVC006,0.00,VWS V14.01,2013-01-16 01:03:00,
2013-01-15 17:08:00,31.5,18.8,30.49,SW,221,0.0,0.0,59,0.00,,OVC006,0.00,VWS V14.01,2013-01-16 01:08:00,
2013-01-15 17:13:00,31.5,18.8,30.49,SW,221,0.0,0.0,59,0.00,,OVC006,0.00,VWS V14.01,2013-01-16 01:13:00,
2013-01-15 17:18:00,31.3,18.6,30.49,SW,221,0.0,0.0,59,0.00,,OVC006,0.00,VWS V14.01,2013-01-16 01:18:00,
2013-01-15 17:23:00,31.3,18.6,30.49,SW,221,0.0,0.0,59,0.00,,OVC006,0.00,VWS V14.01,2013-01-16 01:23:00,
2013-01-15 17:28:00,31.3,19.0,30.49,SW,221,0.0,0.0,60,0.00,,OVC006,0.00,VWS V14.01,2013-01-16 01:28:00,
2013-01-15 17:33:00,31.3,19.0,30.49,SW,221,0.0,0.0,60,0.00,,OVC006,0.00,VWS V14.01,2013-01-16 01:33:00,
2013-01-15 17:38:00,31.3,19.0,30.49,SW,221,0.0,0.0,60,0.00,,OVC006,0.00,VWS V14.01,2013-01-16 01:38:00,
2013-01-15 17:43:00,31.1,18.9,30.49,SW,219,0.0,2.2,60,0.00,,OVC006,0.00,VWS V14.01,2013-01-16 01:43:00,
2013-01-15 17:48:00,31.1,18.5,30.49,SSE,168,0.0,0.0,59,0.00,,OVC006,0.00,VWS V14.01,2013-01-16 01:48:00,
2013-01-15 17:53:00,31.1,18.5,30.49,SSE,167,0.0,0.0,59,0.00,,OVC006,0.00,VWS V14.01,2013-01-16 01:53:00,
2013-01-15 17:58:00,31.1,18.5,30.49,SSE,167,0.0,0.0,59,0.00,,OVC006,0.00,VWS V14.01,2013-01-16 01:58:00,
2013-01-15 18:03:00,30.9,18.3,30.49,SSE,168,0.0,0.0,59,0.00,,OVC008,0.00,VWS V14.01,2013-01-16 02:03:00,
2013-01-15 18:08:00,30.9,18.3,30.49,SSE,167,0.0,0.0,59,0.00,,OVC008,0.00,VWS V14.01,2013-01-16 02:08:00,
2013-01-15 18:13:00,30.7,18.1,30.49,SSE,160,0.0,0.0,59,0.00,,OVC010,0.00,VWS V14.01,2013-01-16 02:13:00,
2013-01-15 18:18:00,30.6,18.0,30.49,SSE,160,0.0,0.0,59,0.00,,OVC010,0.00,VWS V14.01,2013-01-16 02:18:00,
2013-01-15 18:23:00,30.6,18.0,30.49,East,95,2.7,2.7,59,0.00,,OVC010,0.00,VWS V14.01,2013-01-16 02:23:00,
2013-01-15 18:28:00,30.6,18.0,30.49,East,94,0.0,0.0,59,0.00,,OVC010,0.00,VWS V14.01,2013-01-16 02:28:00,
2013-01-15 18:33:00,30.4,17.8,30.49,East,94,0.0,0.0,59,0.00,,OVC010,0.00,VWS V14.01,2013-01-16 02:33:00,
2013-01-15 18:38:00,30.4,17.8,30.46,ENE,72,2.7,3.1,59,0.00,,OVC010,0.00,VWS V14.01,2013-01-16 02:38:00,
2013-01-15 18:43:00,30.4,17.8,30.46,ENE,74,0.0,0.0,59,0.00,,OVC010,0.00,VWS V14.01,2013-01-16 02:43:00,
2013-01-15 18:48:00,30.4,18.2,30.46,ENE,72,0.0,2.7,60,0.00,,OVC010,0.00,VWS V14.01,2013-01-16 02:48:00,
2013-01-15 18:53:00,30.2,18.0,30.49,ENE,69,2.7,2.7,60,0.00,,OVC010,0.00,VWS V14.01,2013-01-16 02:53:00,
2013-01-15 18:58:00,30.2,18.0,30.49,ENE,69,2.7,2.7,60,0.00,,OVC012,0.00,VWS V14.01,2013-01-16 02:58:00,
2013-01-15 19:03:00,30.2,18.0,30.49,ENE,73,2.7,3.6,60,0.00,,OVC012,0.00,VWS V14.01,2013-01-16 03:03:00,
2013-01-15 19:08:00,30.2,18.0,30.49,ENE,73,0.0,0.0,60,0.00,,OVC012,0.00,VWS V14.01,2013-01-16 03:08:00,
2013-01-15 19:13:00,30.2,18.0,30.49,ENE,73,0.0,0.0,60,0.00,,OVC012,0.00,VWS V14.01,2013-01-16 03:13:00,
2013-01-15 19:18:00,30.0,17.8,30.49,ENE,73,0.0,0.0,60,0.00,,OVC015,0.00,VWS V14.01,2013-01-16 03:18:00,
2013-01-15 19:23:00,30.0,18.2,30.49,ENE,73,0.0,0.0,61,0.00,,OVC015,0.00,VWS V14.01,2013-01-16 03:23:00,
2013-01-15 19:28:00,30.0,18.2,30.49,East,84,0.0,0.0,61,0.00,,OVC015,0.00,VWS V14.01,2013-01-16 03:28:00,
2013-01-15 19:33:00,30.0,18.2,30.49,East,82,0.0,0.0,61,0.00,,OVC015,0.00,VWS V14.01,2013-01-16 03:33:00,
2013-01-15 19:38:00,30.2,18.8,30.46,ESE,104,2.7,2.7,62,0.00,,OVC015,0.00,VWS V14.01,2013-01-16 03:38:00,
2013-01-15 19:43:00,30.0,18.6,30.46,ESE,119,0.0,0.0,62,0.00,,OVC015,0.00,VWS V14.01,2013-01-16 03:43:00,
2013-01-15 19:48:00,29.8,18.4,30.46,ESE,119,0.0,0.0,62,0.00,,OVC015,0.00,VWS V14.01,2013-01-16 03:48:00,
2013-01-15 19:53:00,29.5,18.1,30.46,ESE,119,0.0,0.0,62,0.00,,OVC015,0.00,VWS V14.01,2013-01-16 03:53:00,
2013-01-15 19:58:00,29.3,17.9,30.46,ESE,119,0.0,0.0,62,0.00,,,0.00,VWS V14.01,2013-01-16 03:58:00,
2013-01-15 20:03:00,28.9,17.6,30.46,ESE,120,0.0,0.0,62,0.00,,,0.00,VWS V14.01,2013-01-16 04:03:00,
2013-01-15 20:08:00,28.8,17.8,30.46,ESE,120,0.0,0.0,63,0.00,,,0.00,VWS V14.01,2013-01-16 04:08:00,
2013-01-15 20:13:00,28.6,17.6,30.46,ESE,120,0.0,0.0,63,0.00,,,0.00,VWS V14.01,2013-01-16 04:13:00,
2013-01-15 20:18:00,28.4,17.4,30.46,ESE,120,0.0,0.0,63,0.00,,,0.00,VWS V14.01,2013-01-16 04:18:00,
2013-01-15 20:23:00,28.2,17.6,30.46,ESE,120,0.0,0.0,64,0.00,,,0.00,VWS V14.01,2013-01-16 04:23:00,
2013-01-15 20:28:00,27.9,17.3,30.46,ESE,120,0.0,0.0,64,0.00,,,0.00,VWS V14.01,2013-01-16 04:28:00,
2013-01-15 20:33:00,27.5,16.6,30.46,ESE,120,0.0,0.0,63,0.00,,,0.00,VWS V14.01,2013-01-16 04:33:00,
2013-01-15 20:38:00,26.8,15.9,30.46,ESE,120,0.0,0.0,63,0.00,,,0.00,VWS V14.01,2013-01-16 04:38:00,
2013-01-15 20:43:00,26.2,15.4,30.46,ESE,120,0.0,0.0,63,0.00,,,0.00,VWS V14.01,2013-01-16 04:43:00,
2013-01-15 20:48:00,25.3,14.2,30.46,ESE,120,0.0,0.0,62,0.00,,,0.00,VWS V14.01,2013-01-16 04:48:00,
2013-01-15 20:53:00,24.4,13.3,30.46,ESE,120,0.0,0.0,62,0.00,,,0.00,VWS V14.01,2013-01-16 04:53:00,
2013-01-15 20:58:00,23.5,12.4,30.46,ESE,120,0.0,0.0,62,0.00,,,0.00,VWS V14.01,2013-01-16 04:58:00,
2013-01-15 21:00:00,23.4,12.3,30.46,ESE,120,0.0,0.0,62,0.00,,,0.00,VWS V14.01,2013-01-16 05:00:00,
2013-01-15 21:05:00,23.5,13.2,30.46,ESE,120,0.0,0.0,64,0.00,,,0.00,VWS V14.01,2013-01-16 05:05:00,
2013-01-15 21:10:00,23.2,12.8,30.46,ESE,120,2.7,2.7,64,0.00,,,0.00,VWS V14.01,2013-01-16 05:10:00,
2013-01-15 21:15:00,23.0,13.0,30.46,ESE,120,0.0,0.0,65,0.00,,,0.00,VWS V14.01,2013-01-16 05:15:00,
2013-01-15 21:20:00,22.8,13.2,30.46,ESE,120,0.0,0.0,66,0.00,,,0.00,VWS V14.01,2013-01-16 05:20:00,
2013-01-15 21:25:00,22.6,13.0,30.46,ESE,120,0.0,0.0,66,0.00,,,0.00,VWS V14.01,2013-01-16 05:25:00,
2013-01-15 21:30:00,22.5,12.8,30.46,ESE,120,0.0,0.0,66,0.00,,,0.00,VWS V14.01,2013-01-16 05:30:00,
2013-01-15 21:35:00,22.5,13.5,30.46,ESE,120,0.0,0.0,68,0.00,,,0.00,VWS V14.01,2013-01-16 05:35:00,
2013-01-15 21:40:00,22.6,14.0,30.46,ESE,120,0.0,0.0,69,0.00,,,0.00,VWS V14.01,2013-01-16 05:40:00,
2013-01-15 21:45:00,22.5,13.5,30.46,ESE,120,0.0,0.0,68,0.00,,,0.00,VWS V14.01,2013-01-16 05:45:00,
2013-01-15 21:50:00,22.6,14.0,30.46,ESE,120,3.6,3.6,69,0.00,,,0.00,VWS V14.01,2013-01-16 05:50:00,
2013-01-15 21:55:00,21.9,13.0,30.46,ESE,120,0.0,0.0,68,0.00,,,0.00,VWS V14.01,2013-01-16 05:55:00,
2013-01-15 22:00:00,21.4,12.5,30.46,ESE,120,0.0,0.0,68,0.00,,,0.00,VWS V14.01,2013-01-16 06:00:00,
2013-01-15 22:05:00,20.7,11.8,30.46,ESE,120,0.0,0.0,68,0.00,,,0.00,VWS V14.01,2013-01-16 06:05:00,
2013-01-15 22:10:00,20.5,11.6,30.46,ESE,120,0.0,0.0,68,0.00,,,0.00,VWS V14.01,2013-01-16 06:10:00,
2013-01-15 22:15:00,20.1,11.3,30.46,ESE,120,0.0,0.0,68,0.00,,,0.00,VWS V14.01,2013-01-16 06:15:00,
2013-01-15 22:20:00,20.3,12.4,30.46,ESE,120,3.1,3.1,71,0.00,,,0.00,VWS V14.01,2013-01-16 06:20:00,
2013-01-15 22:25:00,20.3,12.4,30.46,ESE,120,0.0,2.2,71,0.00,,,0.00,VWS V14.01,2013-01-16 06:25:00,
2013-01-15 22:30:00,20.1,12.2,30.46,ESE,120,0.0,0.0,71,0.00,,,0.00,VWS V14.01,2013-01-16 06:30:00,
2013-01-15 22:35:00,19.6,11.4,30.46,ESE,120,0.0,0.0,70,0.00,,,0.00,VWS V14.01,2013-01-16 06:35:00,
2013-01-15 22:40:00,19.6,11.7,30.46,ESE,120,0.0,0.0,71,0.00,,,0.00,VWS V14.01,2013-01-16 06:40:00,
2013-01-15 22:45:00,18.7,10.9,30.46,ESE,120,0.0,0.0,71,0.00,,,0.00,VWS V14.01,2013-01-16 06:45:00,
2013-01-15 22:50:00,18.1,10.3,30.46,ESE,120,3.6,3.6,71,0.00,,,0.00,VWS V14.01,2013-01-16 06:50:00,
2013-01-15 22:55:00,18.1,10.3,30.46,ESE,120,0.0,0.0,71,0.00,,,0.00,VWS V14.01,2013-01-16 06:55:00,
2013-01-15 23:00:00,17.8,10.0,30.46,ESE,120,0.0,0.0,71,0.00,,,0.00,VWS V14.01,2013-01-16 07:00:00,
2013-01-15 23:05:00,17.8,10.3,30.46,ESE,120,0.0,0.0,72,0.00,,,0.00,VWS V14.01,2013-01-16 07:05:00,
2013-01-15 23:10:00,17.6,10.1,30.46,ESE,120,0.0,0.0,72,0.00,,,0.00,VWS V14.01,2013-01-16 07:10:00,
2013-01-15 23:15:00,17.8,10.6,30.46,ESE,120,0.0,0.0,73,0.00,,,0.00,VWS V14.01,2013-01-16 07:15:00,
2013-01-15 23:20:00,18.1,11.0,30.46,ESE,120,0.0,0.0,73,0.00,,,0.00,VWS V14.01,2013-01-16 07:20:00,
2013-01-15 23:25:00,18.1,11.0,30.46,ESE,120,0.0,0.0,73,0.00,,,0.00,VWS V14.01,2013-01-16 07:25:00,
2013-01-15 23:30:00,18.3,11.4,30.46,ESE,120,0.0,0.0,74,0.00,,,0.00,VWS V14.01,2013-01-16 07:30:00,
2013-01-15 23:35:00,18.5,11.6,30.46,ESE,120,0.0,0.0,74,0.00,,,0.00,VWS V14.01,2013-01-16 07:35:00,
2013-01-15 23:40:00,18.7,11.8,30.46,ESE,120,0.0,0.0,74,0.00,,,0.00,VWS V14.01,2013-01-16 07:40:00,
2013-01-15 23:45:00,19.0,12.1,30.46,ESE,120,0.0,0.0,74,0.00,,,0.00,VWS V14.01,2013-01-16 07:45:00,
2013-01-15 23:50:00,19.2,12.3,30.46,ESE,120,0.0,0.0,74,0.00,,,0.00,VWS V14.01,2013-01-16 07:50:00,
2013-01-15 23:55:00,19.8,13.1,30.46,ESE,120,0.0,0.0,75,0.00,,,0.00,VWS V14.01,2013-01-16 07:55:00,